DW2770 Cefalu IT current weather conditions

sailwx.info

Wind from 180 at 2 knots gusting 2

Air temperature 22.2° C
Dewpoint 16.7° C

Last reported at 2015-Jul-04 02:41 UTC.
Time now 2015-Jul-04 03:27 UTC

Location: N 38°02' E 014°02'.
View on Google Maps.

See reports from other nearby stations

  
Tides and Currents Weather Stations Pressure Air Temp Water Temp Dewpoint Dewpoint Depression Visibility Wind Speed Wind Dir Waves Ship Positions
date/time (UTC)wind fromknots sea level pressurealtimeterstation pressurevisibilityair tempwater tempwave heightnotes
2015-Jul-04 02:41 180 2 gusting 2 22.2
2015-Jul-04 02:31 202 0 gusting 1 22.2
2015-Jul-04 02:21 202 1 gusting 5 22.2
2015-Jul-04 02:11 202 2 gusting 5 21.7
2015-Jul-04 02:01 202 1 gusting 1 22.2
2015-Jul-04 01:51 202 1 gusting 2 22.2
2015-Jul-04 01:41 202 1 gusting 2 21.7
2015-Jul-04 01:31 202 2 gusting 2 21.7
2015-Jul-04 01:21 202 2 gusting 2 22.2
2015-Jul-04 01:11 202 2 gusting 2 22.2
2015-Jul-04 01:01 202 0 gusting 1 22.2
2015-Jul-04 00:51 202 0 gusting 1 22.8
2015-Jul-04 00:41 180 0 gusting 1 22.2
2015-Jul-04 00:31 205 1 gusting 2 22.2
2015-Jul-04 00:21 180 1 gusting 2 22.2
2015-Jul-04 00:11 202 2 gusting 2 22.2
2015-Jul-04 00:01 202 1 gusting 2 22.2
2015-Jul-03 23:51 180 22.2
2015-Jul-03 23:41 180 1 gusting 4 21.7
2015-Jul-03 23:31 202 2 gusting 4 22.2
2015-Jul-03 23:21 180 4 gusting 4 22.2
2015-Jul-03 23:11 180 0 gusting 1 22.2
2015-Jul-03 23:01 180 1 gusting 1 22.2
2015-Jul-03 22:51 248 22.8
2015-Jul-03 22:41 225 22.8
2015-Jul-03 22:31 270 22.8
2015-Jul-03 22:21 090 0 gusting 0 22.8
2015-Jul-03 22:11 068 22.8
2015-Jul-03 22:01 315 22.8
2015-Jul-03 21:52 193 22.8
2015-Jul-03 21:41 112 22.8
2015-Jul-03 21:31 090 22.8
2015-Jul-03 21:21 160 0 gusting 0 22.8
2015-Jul-03 21:11 180 1 gusting 2 23.3
2015-Jul-03 21:01 180 1 gusting 2 23.3
2015-Jul-03 20:51 190 2 gusting 2 22.8
2015-Jul-03 20:41 135 22.8
2015-Jul-03 20:31 180 23.3
2015-Jul-03 20:21 167 1 gusting 1 23.3
2015-Jul-03 20:11 202 0 gusting 0 23.3
2015-Jul-03 20:01 202 23.3
2015-Jul-03 19:51 191 22.8
2015-Jul-03 19:41 045 22.8
2015-Jul-03 19:31 068 23.3
2015-Jul-03 19:21 068 23.3
2015-Jul-03 19:11 046 23.9
2015-Jul-03 19:01 068 23.9
2015-Jul-03 18:51 090 2 gusting 2 23.9
2015-Jul-03 18:41 068 0 gusting 0 24.4
2015-Jul-03 18:31 068 24.4
2015-Jul-03 18:21 078 25.0
2015-Jul-03 18:11 068 0 gusting 1 25.0
2015-Jul-03 18:01 068 0 gusting 1 25.0
2015-Jul-03 17:51 068 1 gusting 2 25.6
2015-Jul-03 17:41 068 2 gusting 2 25.6
2015-Jul-03 17:31 068 2 gusting 5 25.6
2015-Jul-03 17:22 068 1 gusting 5 25.6
2015-Jul-03 17:12 090 1 gusting 5 25.6
2015-Jul-03 17:02 101 4 gusting 5 26.1
2015-Jul-03 16:52 090 1 gusting 4 26.1
2015-Jul-03 16:42 055 2 gusting 2 26.1
2015-Jul-03 16:32 087 2 gusting 4 26.1
2015-Jul-03 16:22 068 4 gusting 4 26.1
2015-Jul-03 16:12 068 5 gusting 5 26.1
2015-Jul-03 16:02 069 0 gusting 6 26.1
2015-Jul-03 15:52 058 1 gusting 1 26.1
2015-Jul-03 15:42 112 1 gusting 6 26.1
2015-Jul-03 15:32 045 4 gusting 7 25.6
2015-Jul-03 15:22 062 4 gusting 5 25.6
2015-Jul-03 15:12 045 4 gusting 6 25.6
2015-Jul-03 15:02 068 4 gusting 6 25.6
2015-Jul-03 14:52 076 3 gusting 6 26.1
2015-Jul-03 14:42 068 5 gusting 6 26.1
2015-Jul-03 14:32 068 6 gusting 7 26.1
2015-Jul-03 14:22 054 6 gusting 7 26.1
2015-Jul-03 14:12 090 5 gusting 7 26.1
2015-Jul-03 14:02 068 4 gusting 6 26.7
2015-Jul-03 13:52 075 4 gusting 4 27.2
2015-Jul-03 13:42 090 2 gusting 5 27.2
2015-Jul-03 13:32 135 4 gusting 5 27.2
2015-Jul-03 13:22 060 1 gusting 5 27.2
2015-Jul-03 13:12 045 4 gusting 5 27.8
2015-Jul-03 13:02 068 1 gusting 2 27.2
2015-Jul-03 12:52 054 1 gusting 4 27.2
2015-Jul-03 12:42 158 0 gusting 5 27.2
2015-Jul-03 12:32 090 1 gusting 2 27.2
2015-Jul-03 12:22 056 2 gusting 2 27.2
2015-Jul-03 12:12 090 0 gusting 5 27.2
2015-Jul-03 12:02 068 2 gusting 4 27.2
2015-Jul-03 11:52 050 1 gusting 5 26.7
2015-Jul-03 11:42 202 2 gusting 5 26.7
2015-Jul-03 11:32 045 4 gusting 6 26.7
2015-Jul-03 11:22 034 3 gusting 4 27.2
2015-Jul-03 11:12 045 1 gusting 2 27.2
2015-Jul-03 11:02 068 1 gusting 4 26.7
2015-Jul-03 10:52 108 2 gusting 6 26.1
2015-Jul-03 10:42 069 6 gusting 6 25.6
2015-Jul-03 10:32 068 6 gusting 8 25.0
2015-Jul-03 10:22 057 8 gusting 8 25.0
2015-Jul-03 10:12 045 6 gusting 6 25.0
2015-Jul-03 10:02 090 5 gusting 6 25.0
2015-Jul-03 09:52 068 6 gusting 6 25.0
2015-Jul-03 09:42 046 5 gusting 7 25.0
2015-Jul-03 09:32 068 6 gusting 7 25.0
2015-Jul-03 09:22 058 7 gusting 7 25.0
2015-Jul-03 09:12 068 4 gusting 6 25.6
2015-Jul-03 09:02 090 6 gusting 6 25.0
2015-Jul-03 08:52 049 6 gusting 6 25.0
2015-Jul-03 08:42 068 4 gusting 6 24.4
2015-Jul-03 08:32 080 5 gusting 6 24.4
2015-Jul-03 08:22 077 6 gusting 6 25.0
2015-Jul-03 08:12 068 2 gusting 6 25.0
2015-Jul-03 08:02 045 4 gusting 5 25.6
2015-Jul-03 07:52 127 25.6
2015-Jul-03 07:42 351 0 gusting 2 25.0
2015-Jul-03 07:32 292 1 gusting 2 24.4
2015-Jul-03 07:22 225 2 gusting 4 24.4
2015-Jul-03 07:12 292 1 gusting 4 24.4
2015-Jul-03 07:02 315 2 gusting 4 24.4
2015-Jul-03 06:52 296 1 gusting 4 23.9
2015-Jul-03 06:42 273 3 gusting 4 23.9
2015-Jul-03 06:32 292 2 gusting 4 23.9
2015-Jul-03 06:22 286 2 gusting 2 23.9
2015-Jul-03 06:12 292 2 gusting 2 23.9
2015-Jul-03 06:02 292 1 gusting 2 23.9
2015-Jul-03 05:52 292 1 gusting 2 23.9
2015-Jul-03 05:42 290 23.9
2015-Jul-03 05:32 270 0 gusting 1 23.3
2015-Jul-03 00:01 180 2 gusting 2 22.2
2015-Jul-02 23:51 180 1 gusting 2 22.2
2015-Jul-02 23:41 202 1 gusting 4 22.8
2015-Jul-02 23:31 168 1 gusting 2 22.8
2015-Jul-02 23:21 180 2 gusting 2 22.8
2015-Jul-02 23:11 202 2 gusting 2 22.8
2015-Jul-02 23:01 202 2 gusting 2 22.8
2015-Jul-02 22:51 182 2 gusting 2 22.8
2015-Jul-02 22:41 180 2 gusting 4 22.8
2015-Jul-02 22:31 202 4 gusting 4 22.8
2015-Jul-02 22:21 202 0 gusting 2 22.8
2015-Jul-02 22:11 202 1 gusting 1 22.8
2015-Jul-02 22:01 202 22.8
2015-Jul-02 21:51 202 1 gusting 1 22.8
2015-Jul-02 21:41 202 1 gusting 1 23.3
2015-Jul-02 21:31 202 0 gusting 2 23.3
2015-Jul-02 21:21 217 1 gusting 1 23.3
2015-Jul-02 21:11 202 23.3
2015-Jul-02 21:01 202 0 gusting 1 23.3
2015-Jul-02 20:51 180 23.3
2015-Jul-02 20:41 202 22.8
2015-Jul-02 20:31 135 0 gusting 0 23.3
2015-Jul-02 20:21 180 22.8
2015-Jul-02 20:11 180 22.8
2015-Jul-02 20:01 202 22.8
2015-Jul-02 19:50 045 22.8
2015-Jul-02 19:40 068 23.3
2015-Jul-02 19:30 068 23.3
2015-Jul-02 19:20 068 23.3
2015-Jul-02 19:10 068 23.3
2015-Jul-02 19:01 068 23.3
2015-Jul-02 18:50 068 23.9
2015-Jul-02 18:40 068 0 gusting 1 23.9
2015-Jul-02 18:30 068 0 gusting 0 23.9
2015-Jul-02 18:20 068 1 gusting 1 24.4
2015-Jul-02 18:10 081 1 gusting 2 24.4
2015-Jul-02 18:00 045 2 gusting 2 24.4
2015-Jul-02 17:50 068 2 gusting 2 25.0
2015-Jul-02 17:40 068 1 gusting 2 25.0
2015-Jul-02 17:30 112 2 gusting 4 25.0
2015-Jul-02 17:20 068 2 gusting 4 25.6
2015-Jul-02 17:10 090 2 gusting 5 25.6
2015-Jul-02 17:00 068 2 gusting 4 25.6
2015-Jul-02 16:50 112 2 gusting 5 25.6
2015-Jul-02 16:40 068 2 gusting 4 25.6
2015-Jul-02 16:30 068 4 gusting 4 26.1
2015-Jul-02 16:20 068 2 gusting 5 26.1
2015-Jul-02 16:10 059 4 gusting 5 26.1
2015-Jul-02 16:00 069 4 gusting 5 26.1
2015-Jul-02 15:50 068 2 gusting 6 26.1
2015-Jul-02 15:40 068 5 gusting 6 26.1
2015-Jul-02 15:30 068 3 gusting 6 26.1
2015-Jul-02 15:20 090 2 gusting 6 26.1
2015-Jul-02 15:09 045 5 gusting 6 26.1
2015-Jul-02 14:59 080 3 gusting 5 26.7
2015-Jul-02 14:50 045 5 gusting 7 26.7
2015-Jul-02 14:39 045 4 gusting 5 26.7
2015-Jul-02 14:29 045 4 gusting 6 26.7
2015-Jul-02 14:20 158 4 gusting 5 26.7
2015-Jul-02 14:09 090 4 gusting 5 26.7
2015-Jul-02 13:59 060 5 gusting 5 26.7
2015-Jul-02 13:49 068 5 gusting 5 26.7
2015-Jul-02 13:39 068 2 gusting 4 26.7
2015-Jul-02 13:29 077 2 gusting 6 26.7
2015-Jul-02 13:19 090 3 gusting 7 26.7
2015-Jul-02 13:09 090 6 gusting 7 26.7
2015-Jul-02 13:00 104 4 gusting 6 26.7
2015-Jul-02 12:49 090 3 gusting 6 26.7
2015-Jul-02 12:39 022 4 gusting 6 26.7
2015-Jul-02 12:29 053 6 gusting 6 26.7
2015-Jul-02 12:19 068 1 gusting 4 26.7
2015-Jul-02 12:09 068 2 gusting 4 26.7
2015-Jul-02 11:59 124 2 gusting 4 26.7
2015-Jul-02 11:49 090 2 gusting 5 26.7
2015-Jul-02 11:39 090 4 gusting 5 26.7
2015-Jul-02 11:29 068 2 gusting 6 26.7
2015-Jul-02 11:19 068 3 gusting 6 26.7
2015-Jul-02 11:09 045 4 gusting 8 26.1
2015-Jul-02 10:59 068 2 gusting 6 26.1
2015-Jul-02 10:49 092 6 gusting 6 26.7
2015-Jul-02 10:39 090 2 gusting 4 26.7
2015-Jul-02 10:29 099 2 gusting 4 26.7
2015-Jul-02 10:19 110 4 gusting 7 26.1
2015-Jul-02 10:09 068 5 gusting 7 26.1
2015-Jul-02 09:59 063 3 gusting 6 25.6
2015-Jul-02 09:49 026 5 gusting 8 25.6
2015-Jul-02 09:39 068 6 gusting 7 25.0
2015-Jul-02 09:29 050 4 gusting 5 25.6
2015-Jul-02 09:19 068 4 gusting 6 25.0
2015-Jul-02 08:19 307 1 gusting 4 25.6
2015-Jul-02 08:09 315 4 gusting 4 25.0
2015-Jul-02 07:59 292 2 gusting 4 25.0
2015-Jul-02 07:49 239 3 gusting 4 25.0
2015-Jul-02 07:39 315 0 gusting 4 25.0
2015-Jul-02 07:29 314 1 gusting 5 24.4
2015-Jul-02 07:19 292 1 gusting 5 24.4
2015-Jul-02 06:59 295 2 gusting 4 23.9
2015-Jul-02 06:49 289 2 gusting 4 23.9
2015-Jul-02 06:39 292 1 gusting 1 23.9
2015-Jul-02 06:29 271 0 gusting 1 23.9
2015-Jul-02 06:19 311 23.9
2015-Jul-02 06:09 292 0 gusting 1 23.9
2015-Jul-02 05:59 292 0 gusting 1 23.3
2015-Jul-02 05:49 295 0 gusting 2 23.3
2015-Jul-02 05:29 248 1 gusting 1 23.9
2015-Jul-02 05:19 202 1 gusting 1 23.9
2015-Jul-02 05:09 202 0 gusting 0 23.3
2015-Jul-02 04:59 202 22.8
2015-Jul-02 04:49 188 1 gusting 1 22.2
2015-Jul-02 04:39 180 1 gusting 4 21.7
2015-Jul-02 04:29 180 2 gusting 2 21.7
2015-Jul-02 04:19 197 1 gusting 2 21.7
2015-Jul-02 04:09 180 2 gusting 4 21.1
2015-Jul-02 03:59 202 3 gusting 4 21.1
2015-Jul-02 03:49 180 2 gusting 2 21.1
2015-Jul-02 03:39 180 1 gusting 5 21.1
2015-Jul-02 03:29 202 5 gusting 5 21.1
2015-Jul-02 03:19 188 4 gusting 5 21.7
2015-Jul-02 03:09 202 0 gusting 2 21.7